Date String (YYYY-MM-DD hh:mm:ss) UTC,Instrument flags,Ambient pressure (hPa),Sample flow (lpm),Bypass flow (lpm),Sample temperature (°C),Ambient temperature (°C),ASC tube jacket temperature (°C),LED temperature (°C),Box temperature (°C),Sample RH (%),Span deviation,Mass concentration (μg/m³),Mass concentration (μg/m³),Mass concentration (μg/m³)
DateTimeUTC,F1_M11,P_M11,Q1_M11,Q2_M11,T1_M11,T2_M11,T3_M11,T4_M11,T5_M11,U1_M11,ZSPAN_M11,X0_M11,X2_M11,X1_M11
2022-02-16 15:00:00,,0816.1,4.99,0.00,22.4,21.6,00.0,31.3,24.2,14.4,0000.0,0010.57,0005.04,0004.54
2022-02-16 15:01:00,,0816.1,5.00,0.00,22.3,21.5,00.0,31.3,24.1,14.4,0000.0,0011.03,0004.98,0004.52
2022-02-16 15:02:00,,0816.1,5.01,0.00,22.3,21.5,00.0,31.3,24.1,14.4,0000.0,0009.93,0004.93,0004.51
2022-02-16 15:03:00,,0816.2,5.00,0.00,22.3,21.5,00.0,31.3,24.1,14.4,0000.0,0009.90,0004.92,0004.50
2022-02-16 15:04:00,,0816.1,4.99,0.00,22.3,21.5,00.0,31.3,24.1,14.5,0000.0,0009.83,0004.91,0004.49
2022-02-16 15:05:00,,0816.1,5.01,0.00,22.3,21.5,00.0,31.3,24.1,14.5,0000.0,0009.74,0004.94,0004.49
2022-02-16 15:06:00,,0816.2,5.00,0.00,22.3,21.5,00.0,31.3,24.1,14.4,0000.0,0010.09,0004.95,0004.49
2022-02-16 15:07:00,,0816.2,5.00,0.00,22.3,21.5,00.0,31.3,24.1,14.4,0000.0,0009.87,0004.94,0004.47
2022-02-16 15:08:00,,0816.3,5.01,0.00,22.3,21.5,00.0,31.3,24.1,14.3,0000.0,0009.17,0004.92,0004.45
2022-02-16 15:09:00,,0816.3,5.00,0.00,22.3,21.5,00.0,31.3,24.1,14.4,0000.0,0009.17,0004.91,0004.45
2022-02-16 15:10:00,,0816.4,4.99,0.00,22.3,21.5,00.0,31.3,24.1,14.4,0000.0,0009.06,0004.86,0004.43
2022-02-16 15:11:00,,0816.3,4.99,0.00,22.3,21.5,00.0,31.3,24.1,14.4,0000.0,0008.89,0004.87,0004.43
2022-02-16 15:12:00,,0816.3,5.01,0.00,22.3,21.5,00.0,31.3,24.1,14.4,0000.0,0008.70,0004.88,0004.43
2022-02-16 15:13:00,,0816.3,4.99,0.00,22.3,21.5,00.0,31.3,24.1,14.4,0000.0,0009.03,0004.91,0004.45
2022-02-16 15:14:00,,0816.2,5.02,0.00,22.3,21.4,00.0,31.3,24.1,14.4,0000.0,0008.97,0004.91,0004.45
2022-02-16 15:15:00,,0816.2,5.00,0.00,22.3,21.4,00.0,31.3,24.1,14.5,0000.0,0008.95,0004.90,0004.45
2022-02-16 15:16:00,,0816.2,5.00,0.00,22.3,21.4,00.0,31.3,24.0,14.5,0000.0,0008.74,0004.83,0004.43
2022-02-16 15:17:00,,0816.2,5.00,0.00,22.3,21.9,00.0,31.3,24.2,14.4,0000.0,0008.61,0004.79,0004.41
2022-02-16 15:18:00,,0816.3,5.01,0.00,22.5,22.7,00.0,31.3,24.4,14.3,0000.0,0009.10,0004.79,0004.41
2022-02-16 15:19:00,,0816.3,5.00,0.00,22.6,23.1,00.0,31.4,24.6,14.1,0000.0,0009.20,0004.80,0004.40
2022-02-16 15:20:00,,0816.3,4.99,0.00,22.6,22.9,00.0,31.4,24.6,14.1,0000.0,0009.22,0004.81,0004.40
2022-02-16 15:21:00,,0816.3,5.00,0.00,22.6,22.7,00.0,31.4,24.6,14.1,0000.0,0009.36,0004.84,0004.40
2022-02-16 15:22:00,,0816.4,5.00,0.00,22.6,22.5,00.0,31.4,24.6,14.1,0000.0,0009.29,0004.83,0004.40
2022-02-16 15:23:00,,0816.4,5.00,0.00,22.6,22.4,00.0,31.4,24.5,14.1,0000.0,0008.95,0004.81,0004.40
2022-02-16 15:24:00,,0816.4,5.01,0.00,22.6,22.3,00.0,31.5,24.5,14.1,0000.0,0008.73,0004.82,0004.39
2022-02-16 15:25:00,,0816.4,5.00,0.00,22.6,22.2,00.0,31.5,24.5,14.2,0000.0,0008.79,0004.84,0004.38
2022-02-16 15:26:00,,0816.4,5.00,0.00,22.6,22.1,00.0,31.5,24.4,14.2,0000.0,0008.80,0004.84,0004.38
2022-02-16 15:27:00,,0816.3,5.00,0.00,22.6,22.0,00.0,31.5,24.4,14.3,0000.0,0009.00,0004.90,0004.40
2022-02-16 15:28:00,,0816.3,5.01,0.00,22.6,22.0,00.0,31.5,24.4,14.2,0000.0,0008.89,0004.94,0004.43
2022-02-16 15:29:00,,0816.4,4.99,0.00,22.6,21.9,00.0,31.5,24.3,14.2,0000.0,0008.25,0004.95,0004.44
2022-02-16 15:30:00,,0816.4,4.99,0.00,22.5,21.8,00.0,31.5,24.3,14.2,0000.0,0008.23,0004.98,0004.45
2022-02-16 15:31:00,,0816.4,5.01,0.00,22.5,21.7,00.0,31.5,24.3,14.2,0000.0,0008.21,0004.97,0004.46
2022-02-16 15:32:00,,0816.4,5.00,0.00,22.5,21.6,00.0,31.5,24.3,14.2,0000.0,0008.09,0004.93,0004.46
2022-02-16 15:33:00,,0816.4,4.99,0.00,22.5,21.6,00.0,31.5,24.3,14.3,0000.0,0008.27,0004.99,0004.47
2022-02-16 15:34:00,,0816.4,5.02,0.00,22.5,21.6,00.0,31.5,24.3,14.3,0000.0,0008.59,0005.02,0004.47
2022-02-16 15:35:00,,0816.4,5.00,0.00,22.5,21.6,00.0,31.5,24.3,14.3,0000.0,0008.76,0005.02,0004.47
2022-02-16 15:36:00,,0816.4,4.99,0.00,22.5,21.6,00.0,31.5,24.3,14.4,0000.0,0008.80,0005.05,0004.48
2022-02-16 15:37:00,,0816.4,5.00,0.00,22.4,21.6,00.0,31.4,24.2,14.3,0000.0,0008.78,0005.05,0004.48
2022-02-16 15:38:00,,0816.4,5.00,0.00,22.4,21.6,00.0,31.4,24.2,14.2,0000.0,0008.64,0005.02,0004.47
2022-02-16 15:39:00,,0816.4,5.00,0.00,22.4,21.6,00.0,31.4,24.2,14.2,0000.0,0008.53,0004.97,0004.45
2022-02-16 15:40:00,,0816.4,5.01,0.00,22.4,21.6,00.0,31.4,24.1,14.1,0000.0,0008.45,0004.94,0004.43
2022-02-16 15:41:00,,0816.4,4.99,0.00,22.4,21.5,00.0,31.4,24.1,14.2,0000.0,0008.34,0004.90,0004.43
2022-02-16 15:42:00,,0816.3,5.00,0.00,22.3,21.5,00.0,31.4,24.1,14.2,0000.4,0008.31,0004.88,0004.42
2022-02-16 15:43:00,,0816.3,5.02,0.00,22.3,21.5,00.0,31.4,24.1,14.2,0001.7,0008.40,0004.92,0004.41
2022-02-16 15:44:00,,0816.3,4.99,0.00,22.3,21.5,00.0,31.4,24.0,14.3,0001.2,0008.44,0004.89,0004.40
2022-02-16 15:45:00,,0816.4,4.99,0.00,22.3,21.5,00.0,31.4,24.0,14.2,0000.0,0008.83,0004.91,0004.38
2022-02-16 15:46:00,,0816.5,5.00,0.00,22.2,21.4,00.0,31.3,24.0,14.1,0000.0,0008.56,0004.91,0004.36
2022-02-16 15:47:00,,0816.6,5.01,0.00,22.3,21.7,00.0,31.3,24.0,14.1,0000.0,0008.52,0004.88,0004.36
2022-02-16 15:48:00,,0816.5,5.01,0.00,22.4,22.4,00.0,31.4,24.2,14.0,-000.1,0008.62,0004.88,0004.36
2022-02-16 15:49:00,,0816.4,4.99,0.00,22.5,23.0,00.0,31.4,24.5,14.0,-000.2,0008.87,0004.92,0004.35
2022-02-16 15:50:00,,0816.4,5.01,0.00,22.6,23.0,00.0,31.4,24.6,13.9,-000.7,0009.11,0004.97,0004.36
2022-02-16 15:51:00,,0816.4,4.98,0.00,22.6,22.8,00.0,31.5,24.5,14.0,-000.1,0009.22,0004.99,0004.37
2022-02-16 15:52:00,,0816.5,5.02,0.00,22.6,22.5,00.0,31.5,24.4,14.0,0000.0,0009.46,0005.04,0004.38
2022-02-16 15:53:00,,0816.5,4.98,0.00,22.6,22.4,00.0,31.5,24.4,14.0,0000.0,0009.78,0005.05,0004.38
2022-02-16 15:54:00,,0816.5,4.99,0.00,22.5,22.2,00.0,31.5,24.3,14.0,0000.0,0009.85,0005.07,0004.38
2022-02-16 15:55:00,,0816.5,5.02,0.00,22.5,22.1,00.0,31.5,24.3,14.0,0000.0,0009.94,0005.11,0004.40
2022-02-16 15:56:00,,0816.5,5.00,0.00,22.5,22.0,00.0,31.5,24.2,14.1,0000.0,0009.58,0005.11,0004.41
2022-02-16 15:57:00,,0816.5,5.00,0.00,22.5,21.9,00.0,31.5,24.2,14.1,0000.0,0009.88,0005.08,0004.43
2022-02-16 15:58:00,,0816.5,5.00,0.00,22.4,21.9,00.0,31.5,24.2,14.1,0000.0,0009.89,0005.09,0004.43
2022-02-16 15:59:00,,0816.5,5.01,0.00,22.4,21.8,00.0,31.5,24.2,14.1,0000.0,0009.82,0005.08,0004.43
